FW8660 Weather Reports


time (UTC)temp
C
wind
direction
speed
KPH
gust
KPH
rain 1hr
cm
rain 24hr
cm
rain mn
cm
humidity
%
barometer
mb
20260508100029 14 276 6.4 11.3 0.03 0.20 0.08 86 1015.1
20260508094527 14 0 0.0 6.4 0.03 0.18 0.05 87 1014.5
20260508093028 13 297 1.6 3.2 0.03 0.18 0.05 87 1014.6
20260508091532 13 297 1.6 11.3 0.00 0.18 0.03 86 1015.1
20260508090031 13 225 0.0 8.0 0.00 0.18 0.03 87 1015.1
20260508084528 13 286 6.4 11.3 0.00 0.15 0.00 87 1015.0
20260508083031 13 0 0.0 3.2 0.00 0.15 0.00 87 1014.4
20260508081537 13 279 8.0 12.9 0.00 0.15 0.00 87 1014.7
20260508080031 13 221 0.0 4.8 0.00 0.15 0.00 87 1014.2
20260508074527 13 248 4.8 11.3 0.00 0.15 0.00 88 1014.2
20260508073028 13 263 3.2 6.4 0.00 0.15 0.00 88 1013.8
20260508071528 13 278 3.2 9.7 0.00 0.15 0.00 88 1013.7
20260508070054 13 262 1.6 11.3 0.00 0.15 0.00 89 1013.6
20260508064534 12 254 1.6 6.4 0.00 0.13 0.00 89 1013.5
20260508063028 12 250 3.2 9.7 0.00 0.13 0.00 89 1013.5
20260508061528 12 254 1.6 4.8 0.00 0.13 0.00 90 1013.4
20260508060032 11 0 0.0 0.0 0.00 0.13 0.00 89 1013.1
20260508054530 11 0 0.0 0.0 0.00 0.13 0.00 89 1012.9
20260508053030 11 0 0.0 4.8 0.00 0.13 0.00 89 1012.9
20260508051528 11 0 0.0 0.0 0.00 0.13 0.00 89 1012.9
20260508050030 12 0 0.0 3.2 0.00 0.13 0.00 89 1012.6
20260508044528 12 278 3.2 11.3 0.00 0.13 0.00 89 1012.5
20260508043048 12 259 3.2 9.7 0.00 0.13 0.00 89 1012.5
20260508041536 12 271 4.8 11.3 0.00 0.13 0.00 89 1012.4
20260508040030 12 271 4.8 9.7 0.00 0.13 0.00 89 1012.5
20260508034529 12 268 0.0 4.8 0.00 0.13 0.00 88 1012.1
20260508033032 12 268 1.6 4.8 0.00 0.13 0.00 88 1012.1
20260508031528 12 281 0.0 6.4 0.00 0.13 0.00 88 1012.2
20260508030042 11 0 0.0 0.0 0.00 0.13 0.00 88 1012.6
20260508024534 11 0 0.0 0.0 0.00 0.13 0.00 88 1012.6
20260508023032 11 0 0.0 0.0 0.00 0.13 0.00 88 1012.8
20260508021530 11 0 0.0 0.0 0.00 0.13 0.00 87 1012.7
20260508020027 11 0 0.0 0.0 0.00 0.13 0.00 88 1012.8
20260508014531 11 0 0.0 0.0 0.00 0.13 0.00 87 1012.9
20260508013029 12 0 0.0 0.0 0.00 0.13 0.00 87 1012.9
20260508011532 11 0 0.0 0.0 0.00 0.13 0.00 87 1013.2
20260508010031 11 0 0.0 3.2 0.00 0.13 0.00 87 1013.3
20260508004529 11 99 0.0 6.4 0.00 0.13 0.00 87 1013.5
20260508003030 12 99 1.6 6.4 0.00 0.13 0.00 86 1013.8
20260508001531 12 59 0.0 3.2 0.00 0.13 0.00 86 1014.0
20260508000029 12 59 1.6 4.8 0.00 0.13 0.00 86 1014.1
20260507234536 12 59 1.6 4.8 0.00 0.13 0.00 86 1014.1
20260507233028 12 59 1.6 3.2 0.00 0.13 0.00 85 1014.3
20260507231530 12 0 0.0 3.2 0.00 0.13 0.00 85 1014.3
20260507230028 12 0 0.0 1.6 0.00 0.13 0.00 85 1014.5
20260507224529 12 0 0.0 4.8 0.00 0.13 0.00 85 1014.4
20260507223028 13 0 0.0 4.8 0.00 0.13 0.00 84 1014.4
20260507221528 13 0 0.0 4.8 0.00 0.13 0.00 84 1014.4
20260507220030 13 0 0.0 1.6 0.00 0.13 0.00 84 1014.2
20260507214530 13 0 0.0 0.0 0.00 0.13 0.13 83 1014.0
20260507213031 13 95 0.0 6.4 0.00 0.13 0.13 83 1014.0
20260507211530 14 82 3.2 8.0 0.00 0.13 0.13 83 1013.8
20260507210029 14 101 4.8 11.3 0.00 0.13 0.13 82 1013.6
20260507204530 14 71 6.4 14.5 0.00 0.13 0.13 81 1013.8
20260507203032 14 87 12.9 19.3 0.00 0.13 0.13 81 1013.7
20260507201537 14 70 6.4 19.3 0.00 0.13 0.13 82 1013.6
20260507200027 14 85 8.0 12.9 0.00 0.13 0.13 82 1013.4
20260507194528 14 88 9.7 19.3 0.00 0.13 0.13 82 1013.1
20260507193032 15 117 11.3 19.3 0.00 0.13 0.13 83 1012.8
20260507191534 15 98 11.3 17.7 0.00 0.13 0.13 82 1012.5
20260507190031 15 76 11.3 19.3 0.00 0.13 0.13 82 1012.2
20260507184528 15 97 8.0 19.3 0.00 0.13 0.13 82 1012.1
20260507183038 15 94 11.3 19.3 0.00 0.13 0.13 82 1011.8
20260507181530 15 107 11.3 17.7 0.00 0.13 0.13 81 1011.8
20260507180032 16 73 6.4 14.5 0.00 0.13 0.13 80 1011.7
20260507174535 16 94 12.9 19.3 0.00 0.13 0.13 79 1012.0
20260507173034 16 188 3.2 8.0 0.00 0.13 0.13 78 1012.0
20260507171531 16 107 8.0 22.5 0.00 0.13 0.13 77 1011.6
20260507170030 17 146 3.2 11.3 0.00 0.13 0.13 76 1011.5
20260507164531 17 248 3.2 6.4 0.00 0.13 0.13 76 1011.5
20260507163031 17 310 6.4 16.1 0.00 0.13 0.13 78 1011.3
20260507161529 17 263 6.4 14.5 0.00 0.13 0.13 80 1011.2
20260507160035 17 321 8.0 16.1 0.00 0.13 0.13 81 1011.0
20260507154528 17 266 9.7 14.5 0.00 0.13 0.13 83 1011.2
20260507153031 16 298 8.0 14.5 0.00 0.13 0.13 84 1011.3
20260507151531 16 294 6.4 11.3 0.00 0.13 0.13 84 1011.4
20260507150030 17 268 0.0 1.6 0.00 0.13 0.13 84 1011.3
20260507144528 16 0 0.0 4.8 0.05 0.13 0.13 83 1011.2
20260507143050 16 0 1.6 4.8 0.08 0.13 0.13 84 1011.0
20260507141547 16 0 0.0 6.4 0.10 0.13 0.13 83 1010.7
20260507140032 15 180 6.4 16.1 0.08 0.08 0.08 84 1011.0
20260507134528 16 140 12.9 22.5 0.08 0.08 0.08 84 1011.1
20260507133028 16 150 8.0 16.1 0.03 0.03 0.03 83 1011.4
20260507131527 16 150 6.4 14.5 0.00 0.00 0.00 80 1011.4
20260507130040 18 150 8.0 17.7 0.00 0.00 0.00 73 1011.5
20260507124530 19 126 11.3 19.3 0.00 0.00 0.00 70 1011.4
20260507123030 19 94 11.3 24.1 0.00 0.00 0.00 69 1011.5
20260507121530 19 145 9.7 20.9 0.00 0.00 0.00 69 1011.6
20260507120030 19 101 9.7 22.5 0.00 0.00 0.00 69 1011.8
20260507114531 19 64 9.7 20.9 0.00 0.00 0.00 70 1011.8
20260507113030 18 138 12.9 22.5 0.00 0.00 0.00 71 1011.7
20260507111530 18 127 14.5 25.7 0.00 0.00 0.00 72 1011.9
20260507110030 18 105 11.3 25.7 0.00 0.00 0.00 72 1012.0
20260507104527 19 64 16.1 27.4 0.00 0.00 0.00 70 1012.1
20260507103032 18 93 19.3 27.4 0.00 0.00 0.00 72 1012.1
20260507101528 18 81 17.7 29.0 0.00 0.00 0.00 72 1012.1